Main page
METAR-TAF:

METAR-TAF

Airports :

South Wood County Airport

Wisconsin Rapids, Wisconsin, United States

latitude: 44-21-33N, longitude: 089-50-13W, elevation: 1020 ft

Current weather observation

The report was made 1 hour and 2 minutes ago, at 15:54 UTC
Wind 5 mph from variable directions
Temperature 64°F
Humidity 45%
Pressure 29.85 in. Hg
Visibility: 10 miles
Clear sky

METAR: KISW 251554Z AUTO VRB04KT 10SM CLR 18/06 A2985 RMK AO2 SLP109 T01830061

Time: 11:56 (16:56 UTC)


TAF: missing

Weather observations and forecasts of more than 4000 airports (METAR and TAF reports).

The available stations are represented by yellow and red dots on the map.

Hover mouse over dot to see the name of the station.

Then click to see weather observations and forecasts.

To change the map : click on the green buttons with a black cross to zoom in, on the green button with a dash to zoom out, or on the green arrows for adjacent maps.


METAR-TAF: